Location: Chippewa Lake
(41.0698°N, 81.9010°W)
Time: 11:55:12
(UTC+00:00)

Cosmos 2084 - Pass Details

Date: 29 September 2021
Orbit: 529 x 652 km, 62.8° (Epoch: 20 October)

Event Time Altitude Azimuth Distance (km) Brightness Sun altitude
Exits shadow 10:09:49 25° 271° (W) 1,096 4.2 -14.5°
Maximum altitude 10:11:19 34° 313° (NW) 900 4.1 -14.2°
Drops below altitude 10° 10:15:04 10° 19° (NNE) 1,826 6.3 -13.5°
Sets 10:17:29 0° 29° (NNE) 2,742 7.4 -13.0°
